Location: Newark
(41.8328°N, 0.5722°E)
Time: 10:30:34
(UTC+00:00)

N. Korean satellite - Visible Passes

Search period start: 28 January 2020 00:00
Search period end: 07 February 2020 00:00
Orbit: 454 x 507 km, 97.2° (Epoch: 27 January)

Date Brightness Start Highest point End Pass type
(mag) Time Alt. Az. Time Alt. Az. Time Alt. Az.
28 Jan 6.5 06:02:27 10° N 06:06:01 59° WNW 06:09:36 10° SSW visible
29 Jan 7.1 05:36:57 10° NNE 05:40:32 61° E 05:44:08 10° S visible
29 Jan 9.6 17:46:48 10° SW 17:49:21 20° W 17:51:55 10° NW visible
30 Jan 8.7 05:11:47 10° NE 05:14:58 28° E 05:18:09 10° SSE visible
31 Jan 9.9 04:47:18 10° ENE 04:49:19 14° E 04:51:20 10° SE visible
31 Jan 7.2 06:19:29 10° N 06:22:49 35° WNW 06:26:11 10° SW visible
01 Feb 6.5 05:53:45 10° N 05:57:23 78° WNW 06:01:03 10° SSW visible
01 Feb 10.1 18:04:53 10° WSW 18:06:18 12° W 18:07:45 10° WNW visible
02 Feb 7.7 05:28:20 10° NNE 05:31:53 47° E 05:35:26 10° S visible
02 Feb 9.2 17:37:44 10° SSW 17:40:37 25° W 17:43:32 10° NW visible
03 Feb 9.2 05:03:20 10° NE 05:06:17 23° E 05:09:14 10° SSE visible
03 Feb 7.8 06:36:39 10° NNW 06:39:34 23° WNW 06:42:30 10° WSW visible
04 Feb 10.2 04:39:21 10° ENE 04:40:35 11° E 04:41:49 10° ESE visible
04 Feb 6.9 06:10:41 10° N 06:14:12 46° WNW 06:17:44 10° SSW visible
05 Feb 6.7 05:45:03 10° NNE 05:48:44 81° ESE 05:52:26 10° S visible
05 Feb 9.8 17:55:24 10° SW 17:57:33 16° W 17:59:43 10° NW visible
06 Feb 8.2 05:19:45 10° NNE 05:23:12 36° E 05:26:38 10° SSE visible
